User: anonymous   Login
Location: Fuglau
(48.6333°N, 15.5500°E)
Time: 07:31:34
(UTC+00:00)
Language:

NOSS 2-3 (D) - Orbit

View from above orbital plane
View from above orbital plane
View from above satellite
View from above satellite

Ground track
Ground track

The orbit data is extracted from the following two-line orbital elements,

1 23862U 96029D   20152.97965758 0.00000000  00000-0  00000-0 0    06
2 23862  63.3613 155.8773 0702009  22.0583 337.9417 13.40887383    08
Epoch (UTC): 31 May 2020 23:30:42
Eccentricity: 0.0702009
inclination: 63.3613°
perigee height: 580 km
apogee height: 1631 km
right ascension of ascending node: 155.8773°
argument of perigee: 22.0583°
revolutions per day: 13.40887383
mean anomaly at epoch: 337.9417°
orbit number at epoch: 0

The dashed part of the orbit path shows where the satellite is in the earth's shadow,  

DLR